Location: Sungai Bunut
(2.6333°N, 113.7333°E)
Time: 06:55:34
(UTC+00:00)

Vanguard 3 - Pass Details

Date: 06 December 2023
Orbit: 508 x 3239 km, 33.3° (Epoch: 21 February)

Event Time Altitude Azimuth Distance (km) Brightness Sun altitude
Rises 11:14:21 0° 243° (WSW) 7,163 13.9 -14.5°
Reaches altitude 10° 11:19:16 10° 245° (WSW) 6,174 13.0 -15.6°
Maximum altitude 11:38:33 62° 322° (NW) 3,007 10.0 -20.1°
Enters shadow 11:48:39 23° 35° (NE) 3,770 10.0 -22.4°
Drops below altitude 10° 11:51:49 10° 42° (NE) 4,414 - -23.1°
Sets 11:54:43 0° 45° (NE) 5,098 - -23.8°
